TimeEST,TemperatureF,Dew PointF,Humidity,Sea Level PressureIn,VisibilityMPH,Wind Direction,Wind SpeedMPH,Gust SpeedMPH,PrecipitationIn,Events,Conditions,WindDirDegrees,DateUTC
12:53 AM,66.9,64.0,90,29.95,10.0,East,6.9,-,N/A,,Clear,100,2011-11-28 05:53:00
1:53 AM,68.0,64.9,90,29.94,10.0,ESE,5.8,-,N/A,,Clear,120,2011-11-28 06:53:00
2:53 AM,68.0,64.9,90,29.92,10.0,ESE,6.9,-,N/A,,Clear,120,2011-11-28 07:53:00
3:53 AM,68.0,64.9,90,29.91,10.0,SE,5.8,-,N/A,,Clear,130,2011-11-28 08:53:00
4:53 AM,68.0,64.9,90,29.91,10.0,SE,5.8,-,N/A,,Clear,130,2011-11-28 09:53:00
5:53 AM,66.9,64.9,93,29.91,10.0,ESE,8.1,-,N/A,,Clear,120,2011-11-28 10:53:00
6:53 AM,66.0,64.0,93,29.92,9.0,SE,4.6,-,N/A,,Clear,130,2011-11-28 11:53:00
7:53 AM,70.0,66.0,87,29.92,10.0,SE,9.2,-,N/A,,Clear,130,2011-11-28 12:53:00
8:53 AM,73.9,68.0,82,29.93,10.0,SE,6.9,-,N/A,,Clear,140,2011-11-28 13:53:00
9:53 AM,78.1,68.0,71,29.94,10.0,South,16.1,23.0,N/A,,Partly Cloudy,170,2011-11-28 14:53:00
10:53 AM,78.8,66.2,65,29.93,10.0,South,18.4,21.9,N/A,,Clear,170,2011-11-28 15:53:00
11:53 AM,80.1,68.0,67,29.92,10.0,South,13.8,21.9,N/A,,Partly Cloudy,190,2011-11-28 16:53:00
12:53 PM,80.1,68.0,67,29.89,10.0,SSW,13.8,21.9,N/A,,Clear,200,2011-11-28 17:53:00
1:53 PM,81.0,68.0,65,29.88,10.0,SSW,18.4,24.2,N/A,,Scattered Clouds,200,2011-11-28 18:53:00
2:53 PM,79.0,68.0,69,29.87,10.0,SSW,15.0,21.9,N/A,,Partly Cloudy,200,2011-11-28 19:53:00
3:53 PM,77.0,68.0,74,29.87,10.0,South,10.4,-,N/A,,Mostly Cloudy,190,2011-11-28 20:53:00
4:53 PM,72.0,68.0,87,29.89,1.0,WNW,16.1,-,0.05,Rain,Heavy Rain,290,2011-11-28 21:53:00
5:32 PM,69.8,66.2,88,29.91,4.0,NNW,10.4,18.4,0.08,Rain,Light Rain,330,2011-11-28 22:32:00
5:53 PM,69.1,66.9,93,29.91,6.0,NW,9.2,18.4,0.08,,Overcast,320,2011-11-28 22:53:00
6:53 PM,66.9,64.0,90,29.93,8.0,North,13.8,20.7,N/A,,Overcast,350,2011-11-28 23:53:00
7:53 PM,66.9,63.0,87,29.95,10.0,NNW,8.1,-,N/A,,Overcast,340,2011-11-29 00:53:00
8:53 PM,66.0,63.0,90,29.97,10.0,North,5.8,-,N/A,,Overcast,350,2011-11-29 01:53:00
9:53 PM,66.0,63.0,90,29.96,8.0,NNE,5.8,-,0.00,Rain,Light Rain,30,2011-11-29 02:53:00
10:53 PM,64.4,62.6,94,29.97,10.0,North,4.6,-,N/A,,Overcast,360,2011-11-29 03:53:00
11:53 PM,64.9,62.1,90,29.97,10.0,North,4.6,-,N/A,,Overcast,350,2011-11-29 04:53:00